Change the Weather History Date:

Sunday, July 14, 2013

  Actual Average Record
Temperature  
Mean Temperature 68 °F 72 °F  
Max Temperature 80 °F 87 °F 107 °F (1931)
Min Temperature 55 °F 56 °F 44 °F (1973)
Degree Days  
Heating Degree Days 0 0  
Month to date heating degree days 0 14  
Since 1 June heating degree days 117 156  
Since 1 July heating degree days 0 14  
Cooling Degree Days 3 7  
Month to date cooling degree days 113 83  
Year to date cooling degree days 167 151  
Since 1 June cooling degree days 159 143  
Growing Degree Days 17 (Base 50)    
Moisture  
Dew Point 52 °F    
Average Humidity 61    
Maximum Humidity 73    
Minimum Humidity 48    
Precipitation  
Precipitation 0.00 in 0.06 in 0.70 in (1948)
Month to date precipitation 1.66 0.74  
Year to date precipitation 11.21 8.61  
Sea Level Pressure  
Sea Level Pressure 30.11 in    
Wind  
Wind Speed 11 mph (ENE)    
Max Wind Speed 22 mph    
Max Gust Speed 28 mph    
Visibility 10 miles    
Events      
T = Trace of Precipitation, MM = Missing Value Source: NWS Daily Summary

Daily Weather History Graph

Daily Weather History Graph

Search for Another Location

Airport or City:

Trip Planner

Search our weather history database for the weather conditions in past years. The results will help you decide how hot, cold, wet, or windy it might be!

Date:

Astronomy

Jul. 14, 2013 Rise Set
Actual Time 5:31 AM MDT 8:44 PM MDT
Civil Twilight 4:56 AM MDT 9:19 PM MDT
Nautical Twilight 4:10 AM MDT 10:04 PM MDT
Astronomical Twilight 3:14 AM MDT 11:00 PM MDT
Moon 12:07 PM MDT (7/14) 11:40 PM MDT (7/14)
Length of Visible Light 16h 23m
Length of Day
15h 12m
Waxing Crescent, 35% of the Moon is Illuminated
Jul 14
Waxing Crescent
Jul 15
First Quarter
Jul 22
Full
Jul 29
Last Quarter
Aug 6
New

Hourly Weather History & Observations

Time (MDT) Temp. Dew Point Humidity Pressure Visibility Wind Dir Wind Speed Gust Speed Precip Events Conditions
12:28 AM 62.6 °F 53.6 °F 72% 30.21 in 10.0 mi North 20.7 mph 27.6 mph N/A   Overcast
12:53 AM 63.0 °F 50.0 °F 63% 30.06 in 10.0 mi North 17.3 mph - N/A   Overcast
1:53 AM 63.0 °F 46.9 °F 56% 30.06 in 10.0 mi North 15.0 mph - N/A   Overcast
2:53 AM 62.1 °F 46.0 °F 56% 30.06 in 10.0 mi North 15.0 mph - N/A   Overcast
3:53 AM 62.1 °F 45.0 °F 53% 30.07 in 10.0 mi North 13.8 mph - N/A   Overcast
4:45 AM 57.2 °F 44.6 °F 63% 30.24 in 10.0 mi NNW 10.4 mph - N/A   Mostly Cloudy
4:53 AM 57.0 °F 44.1 °F 62% 30.10 in 10.0 mi NNW 10.4 mph - N/A   Mostly Cloudy
5:13 AM 55.4 °F 44.6 °F 67% 30.24 in 10.0 mi NNW 10.4 mph - N/A   Scattered Clouds
5:53 AM 55.9 °F 46.0 °F 69% 30.12 in 10.0 mi NNW 8.1 mph - N/A   Mostly Cloudy
6:53 AM 57.9 °F 46.9 °F 67% 30.13 in 10.0 mi North 9.2 mph - N/A   Overcast
7:53 AM 59.0 °F 46.9 °F 64% 30.14 in 10.0 mi North 10.4 mph - N/A   Mostly Cloudy
8:53 AM 62.1 °F 48.0 °F 60% 30.16 in 10.0 mi North 8.1 mph - N/A   Overcast
9:53 AM 66.0 °F 50.0 °F 56% 30.16 in 10.0 mi NE 6.9 mph - N/A   Mostly Cloudy
10:53 AM 66.9 °F 51.1 °F 57% 30.15 in 10.0 mi NE 6.9 mph - N/A   Partly Cloudy
11:53 AM 68.0 °F 53.1 °F 59% 30.16 in 10.0 mi ENE 10.4 mph - N/A   Overcast
12:53 PM 70.0 °F 55.0 °F 59% 30.14 in 10.0 mi East 8.1 mph - N/A   Overcast
1:53 PM 71.1 °F 55.9 °F 59% 30.14 in 10.0 mi ESE 9.2 mph - N/A   Mostly Cloudy
2:53 PM 73.9 °F 55.9 °F 53% 30.11 in 10.0 mi East 8.1 mph - N/A   Partly Cloudy
3:53 PM 78.1 °F 57.0 °F 48% 30.07 in 10.0 mi SSE 11.5 mph 19.6 mph N/A   Clear
4:53 PM 79.0 °F 57.9 °F 48% 30.06 in 10.0 mi ESE 10.4 mph - N/A   Clear
5:53 PM 79.0 °F 59.0 °F 50% 30.04 in 10.0 mi ESE 10.4 mph - N/A   Clear
6:53 PM 79.0 °F 57.0 °F 47% 30.03 in 10.0 mi SSE 10.4 mph - N/A   Clear
7:53 PM 73.9 °F 59.0 °F 59% 30.05 in 10.0 mi East 9.2 mph - N/A   Clear
8:53 PM 72.0 °F 60.1 °F 66% 30.06 in 10.0 mi SSE 4.6 mph - N/A   Clear
9:53 PM 72.0 °F 59.0 °F 64% 30.06 in 10.0 mi SE 8.1 mph - N/A   Clear
10:53 PM 70.0 °F 57.9 °F 65% 30.06 in 10.0 mi SSE 17.3 mph - N/A   Clear
11:53 PM 66.0 °F 57.9 °F 75% 30.06 in 10.0 mi SSE 17.3 mph - N/A   Clear